Year,Month,Day,Hour,Minute,Value (Times are PST for temperature in C)
2016,11,18,04,17,6.70
2016,11,18,04,18,6.70
2016,11,18,04,19,6.70
2016,11,18,04,20,6.70
2016,11,18,04,21,6.70
2016,11,18,04,22,6.70
2016,11,18,04,23,6.70
2016,11,18,04,24,6.70
2016,11,18,04,25,6.70
2016,11,18,04,26,6.70
2016,11,18,04,27,6.70
2016,11,18,04,28,6.70
2016,11,18,04,29,6.70
2016,11,18,04,30,6.70
2016,11,18,04,31,6.70
2016,11,18,04,32,6.70
2016,11,18,04,33,6.70
2016,11,18,04,34,6.70
2016,11,18,04,35,6.70
2016,11,18,04,36,6.60
2016,11,18,04,37,6.60
2016,11,18,04,38,6.60
2016,11,18,04,39,6.60
2016,11,18,04,40,6.60
2016,11,18,04,41,6.60
2016,11,18,04,42,6.60
2016,11,18,04,43,6.60
2016,11,18,04,44,6.60
2016,11,18,04,45,6.60
2016,11,18,04,46,6.60
2016,11,18,04,47,6.60
2016,11,18,04,48,6.60
2016,11,18,04,49,6.60
2016,11,18,04,50,6.60
2016,11,18,04,51,6.60
2016,11,18,04,52,6.60
2016,11,18,04,53,6.60
2016,11,18,04,54,6.60
2016,11,18,04,55,6.60
2016,11,18,04,56,6.60
2016,11,18,04,57,6.60
2016,11,18,04,58,6.60
2016,11,18,04,59,6.60
2016,11,18,05,00,6.60
2016,11,18,05,01,6.60
2016,11,18,05,02,6.60
2016,11,18,05,03,6.60
2016,11,18,05,04,6.60
2016,11,18,05,05,6.60
2016,11,18,05,06,6.60
2016,11,18,05,07,6.60
2016,11,18,05,08,6.60
2016,11,18,05,09,6.60
2016,11,18,05,10,6.60
2016,11,18,05,11,6.60
2016,11,18,05,12,6.60
2016,11,18,05,13,6.60
2016,11,18,05,14,6.60
2016,11,18,05,15,6.60
2016,11,18,05,16,6.60
2016,11,18,05,17,6.60
2016,11,18,05,18,6.60
2016,11,18,05,19,6.60
2016,11,18,05,20,6.60
2016,11,18,05,21,6.60
2016,11,18,05,22,6.60
2016,11,18,05,23,6.60
2016,11,18,05,24,6.60
2016,11,18,05,25,6.60
2016,11,18,05,26,6.60
2016,11,18,05,27,6.60
2016,11,18,05,28,6.50
2016,11,18,05,29,6.50
2016,11,18,05,30,6.50
2016,11,18,05,31,6.50
2016,11,18,05,32,6.50
2016,11,18,05,33,6.50
2016,11,18,05,34,6.50
2016,11,18,05,35,6.50
2016,11,18,05,36,6.50
2016,11,18,05,37,6.50
2016,11,18,05,38,6.50
2016,11,18,05,39,6.50
2016,11,18,05,40,6.50
2016,11,18,05,41,6.50
2016,11,18,05,42,6.50
2016,11,18,05,43,6.50
2016,11,18,05,44,6.50
2016,11,18,05,45,6.50
2016,11,18,05,46,6.50
2016,11,18,05,47,6.50
2016,11,18,05,48,6.50
2016,11,18,05,49,6.50
2016,11,18,05,50,6.50
2016,11,18,05,51,6.50
2016,11,18,05,52,6.50
2016,11,18,05,53,6.50
2016,11,18,05,54,6.50
2016,11,18,05,55,6.50
2016,11,18,05,56,6.50
2016,11,18,05,57,6.50
2016,11,18,05,58,6.40
2016,11,18,05,59,6.40
2016,11,18,06,00,6.40
2016,11,18,06,01,6.40
2016,11,18,06,02,6.40
2016,11,18,06,03,6.40
2016,11,18,06,04,6.40
2016,11,18,06,05,6.40
2016,11,18,06,06,6.40
2016,11,18,06,07,6.40
2016,11,18,06,08,6.40
2016,11,18,06,09,6.40
2016,11,18,06,10,6.40
2016,11,18,06,11,6.40
2016,11,18,06,12,6.30
2016,11,18,06,13,6.30
2016,11,18,06,14,6.30
2016,11,18,06,15,6.30
2016,11,18,06,16,6.30
2016,11,18,06,17,6.30
2016,11,18,06,18,6.30
2016,11,18,06,19,6.30
2016,11,18,06,20,6.30
2016,11,18,06,21,6.30
2016,11,18,06,22,6.30
2016,11,18,06,23,6.30
2016,11,18,06,24,6.30
2016,11,18,06,25,6.30
2016,11,18,06,26,6.30
2016,11,18,06,27,6.30
2016,11,18,06,28,6.30
2016,11,18,06,29,6.30
2016,11,18,06,30,6.30
2016,11,18,06,31,6.30
2016,11,18,06,32,6.30
2016,11,18,06,33,6.30
2016,11,18,06,34,6.30
2016,11,18,06,35,6.30
2016,11,18,06,36,6.30
2016,11,18,06,37,6.30
2016,11,18,06,38,6.30
2016,11,18,06,39,6.30
2016,11,18,06,40,6.30
2016,11,18,06,41,6.30
2016,11,18,06,42,6.30
2016,11,18,06,43,6.30
2016,11,18,06,44,6.30
2016,11,18,06,45,6.30
2016,11,18,06,46,6.30
2016,11,18,06,47,6.30
2016,11,18,06,48,6.30
2016,11,18,06,49,6.30
2016,11,18,06,50,6.30
2016,11,18,06,51,6.30
2016,11,18,06,52,6.30
2016,11,18,06,53,6.30
2016,11,18,06,54,6.30
2016,11,18,06,55,6.30
2016,11,18,06,56,6.30
2016,11,18,06,57,6.30
2016,11,18,06,58,6.30
2016,11,18,06,59,6.30
2016,11,18,07,00,6.30
2016,11,18,07,01,6.30
2016,11,18,07,02,6.30
2016,11,18,07,03,6.30
2016,11,18,07,04,6.30
2016,11,18,07,05,6.30
2016,11,18,07,06,6.30
2016,11,18,07,07,6.30
2016,11,18,07,08,6.30
2016,11,18,07,09,6.30
2016,11,18,07,10,6.30
2016,11,18,07,11,6.30
2016,11,18,07,12,6.20
2016,11,18,07,13,6.20
2016,11,18,07,14,6.30
2016,11,18,07,15,6.30
2016,11,18,07,16,6.30
2016,11,18,07,17,6.30
2016,11,18,07,18,6.30
2016,11,18,07,19,6.30
2016,11,18,07,20,6.30
2016,11,18,07,21,6.30
2016,11,18,07,22,6.30
2016,11,18,07,23,6.30
2016,11,18,07,24,6.30
2016,11,18,07,25,6.30
2016,11,18,07,26,6.30
2016,11,18,07,27,6.30
2016,11,18,07,28,6.30
2016,11,18,07,29,6.30
2016,11,18,07,30,6.30
2016,11,18,07,31,6.30
2016,11,18,07,32,6.30
2016,11,18,07,33,6.30
2016,11,18,07,34,6.30
2016,11,18,07,35,6.30
2016,11,18,07,36,6.30
2016,11,18,07,37,6.30
2016,11,18,07,38,6.30
2016,11,18,07,39,6.30
2016,11,18,07,40,6.30
2016,11,18,07,41,6.30
2016,11,18,07,42,6.30
2016,11,18,07,43,6.30
2016,11,18,07,44,6.30
2016,11,18,07,45,6.30
2016,11,18,07,46,6.30
2016,11,18,07,47,6.30
2016,11,18,07,48,6.30
2016,11,18,07,49,6.30
2016,11,18,07,50,6.30
2016,11,18,07,51,6.30
2016,11,18,07,52,6.30
2016,11,18,07,53,6.30
2016,11,18,07,54,6.30
2016,11,18,07,55,6.30
2016,11,18,07,56,6.30
2016,11,18,07,57,6.30
2016,11,18,07,58,6.30
2016,11,18,07,59,6.30
2016,11,18,08,00,6.30
2016,11,18,08,01,6.30
2016,11,18,08,02,6.30
2016,11,18,08,03,6.30
2016,11,18,08,04,6.30
2016,11,18,08,05,6.30
2016,11,18,08,06,6.20
2016,11,18,08,07,6.20
2016,11,18,08,08,6.20
2016,11,18,08,09,6.20
2016,11,18,08,10,6.20
2016,11,18,08,11,6.30
2016,11,18,08,12,6.30
2016,11,18,08,13,6.30
2016,11,18,08,14,6.30
2016,11,18,08,15,6.30
2016,11,18,08,16,6.30
2016,11,18,08,17,6.30
2016,11,18,08,18,6.30
2016,11,18,08,19,6.30
2016,11,18,08,20,6.30
2016,11,18,08,21,6.40
2016,11,18,08,22,6.40
2016,11,18,08,23,6.40
2016,11,18,08,24,6.40
2016,11,18,08,25,6.40
2016,11,18,08,26,6.40
2016,11,18,08,27,6.40
2016,11,18,08,28,6.40
2016,11,18,08,29,6.40
2016,11,18,08,30,6.40
2016,11,18,08,31,6.40
2016,11,18,08,32,6.50
2016,11,18,08,33,6.50
2016,11,18,08,34,6.50
2016,11,18,08,35,6.50
2016,11,18,08,36,6.50
2016,11,18,08,37,6.50
2016,11,18,08,38,6.50
2016,11,18,08,39,6.60
2016,11,18,08,40,6.60
2016,11,18,08,41,6.60
2016,11,18,08,42,6.60
2016,11,18,08,43,6.60
2016,11,18,08,44,6.60
2016,11,18,08,45,6.60
2016,11,18,08,46,6.50
2016,11,18,08,47,6.50
2016,11,18,08,48,6.50
2016,11,18,08,49,6.50
2016,11,18,08,50,6.50
2016,11,18,08,51,6.50
2016,11,18,08,52,6.50
2016,11,18,08,53,6.50
2016,11,18,08,54,6.50
2016,11,18,08,55,6.50
2016,11,18,08,56,6.50
2016,11,18,08,57,6.50
2016,11,18,08,58,6.50
2016,11,18,08,59,6.50
2016,11,18,09,00,6.50
2016,11,18,09,01,6.50
2016,11,18,09,02,6.50
2016,11,18,09,03,6.50
2016,11,18,09,04,6.50
2016,11,18,09,05,6.50
2016,11,18,09,06,6.50
2016,11,18,09,07,6.50
2016,11,18,09,08,6.50
2016,11,18,09,09,6.50
2016,11,18,09,10,6.50
2016,11,18,09,11,6.50
2016,11,18,09,12,6.50
2016,11,18,09,13,6.50
2016,11,18,09,14,6.50
2016,11,18,09,15,6.50
2016,11,18,09,16,6.50
2016,11,18,09,17,6.50
2016,11,18,15,49,7.00
2016,11,18,15,50,7.00
2016,11,18,15,51,7.00
2016,11,18,15,52,7.00
2016,11,18,15,53,7.00
2016,11,18,15,54,7.00
2016,11,18,15,55,7.00
2016,11,18,15,56,7.00
2016,11,18,15,57,7.00
2016,11,18,15,58,7.00
2016,11,18,15,59,7.00
2016,11,18,16,00,6.90
2016,11,18,16,01,6.90
2016,11,18,16,02,6.90
2016,11,18,16,03,6.90
2016,11,18,16,04,6.90
2016,11,18,16,05,6.90
2016,11,18,16,06,6.90
2016,11,18,16,07,6.90
2016,11,18,16,08,6.90
2016,11,18,16,09,6.90
2016,11,18,16,10,6.90
2016,11,18,16,11,6.90
2016,11,18,16,12,6.90
2016,11,18,16,13,6.90
2016,11,18,16,14,6.90
2016,11,18,16,15,6.90
2016,11,18,16,16,6.90
2016,11,18,16,17,6.90
2016,11,18,16,18,6.90
2016,11,18,16,19,6.90
2016,11,18,16,20,6.90
2016,11,18,16,21,6.90
2016,11,18,16,22,6.90
2016,11,18,16,23,6.90
2016,11,18,16,24,6.90
2016,11,18,16,25,6.90
2016,11,18,16,26,6.80
2016,11,18,16,27,6.80
2016,11,18,16,28,6.80
2016,11,18,16,29,6.80
2016,11,18,16,30,6.80
2016,11,18,16,31,6.80
2016,11,18,16,32,6.80
2016,11,18,16,33,6.80
2016,11,18,16,34,6.80
2016,11,18,16,35,6.80
2016,11,18,16,36,6.80
2016,11,18,16,37,6.80
2016,11,18,16,38,6.80
2016,11,18,16,39,6.80
2016,11,18,16,40,6.80
2016,11,18,16,41,6.80
2016,11,18,16,42,6.80
2016,11,18,16,43,6.80
2016,11,18,16,44,6.80
2016,11,18,16,45,6.80
2016,11,18,16,46,6.80
2016,11,18,16,47,6.80
2016,11,18,16,48,6.80
2016,11,18,16,49,6.80
2016,11,18,16,50,6.80
2016,11,18,16,51,6.80
2016,11,18,16,52,6.80
2016,11,18,16,53,6.80
2016,11,18,16,54,6.80
2016,11,18,16,55,6.80
2016,11,18,16,56,6.80
2016,11,18,16,57,6.80
2016,11,18,16,58,6.80
2016,11,18,16,59,6.80
2016,11,18,17,00,6.80
2016,11,18,17,01,6.80
2016,11,18,17,02,6.80
2016,11,18,17,03,6.80
2016,11,18,17,04,6.80
2016,11,18,17,05,6.80
2016,11,18,17,06,6.80
2016,11,18,17,07,6.80
2016,11,18,17,08,6.80
2016,11,18,17,09,6.80
2016,11,18,17,10,6.80
2016,11,18,17,11,6.80
2016,11,18,17,12,6.80
2016,11,18,17,13,6.80
2016,11,18,17,14,6.80
2016,11,18,17,15,6.80
2016,11,18,17,16,6.80
2016,11,18,17,17,6.80
2016,11,18,17,18,6.80
2016,11,18,17,19,6.80
2016,11,18,17,20,6.80
2016,11,18,17,21,6.80
2016,11,18,17,22,6.80
2016,11,18,17,23,6.80
2016,11,18,17,24,6.80
2016,11,18,17,25,6.80
2016,11,18,17,26,6.80
2016,11,18,17,27,6.80
2016,11,18,17,28,6.80
2016,11,18,17,29,6.80
2016,11,18,17,30,6.80
2016,11,18,17,31,6.80
2016,11,18,17,32,6.80
2016,11,18,17,33,6.80
2016,11,18,17,34,6.80
2016,11,18,17,35,6.80
2016,11,18,17,36,6.80
2016,11,18,17,37,6.80
2016,11,18,17,38,6.80
2016,11,18,17,39,6.80
2016,11,18,17,40,6.70
2016,11,18,17,41,6.80
2016,11,18,17,42,6.80
2016,11,18,17,43,6.70
2016,11,18,17,44,6.80
2016,11,18,17,45,6.80
2016,11,18,17,46,6.80
2016,11,18,17,47,6.70
2016,11,18,17,48,6.80
2016,11,18,17,49,6.80
2016,11,18,17,50,6.80
2016,11,18,17,51,6.80
2016,11,18,17,52,6.80
2016,11,18,17,53,6.80
2016,11,18,17,54,6.80
2016,11,18,17,55,6.80
2016,11,18,17,56,6.80
2016,11,18,17,57,6.80
2016,11,18,17,58,6.80
2016,11,18,17,59,6.80
2016,11,18,18,00,6.70
2016,11,18,18,01,6.70
2016,11,18,18,02,6.70
2016,11,18,18,03,6.70
2016,11,18,18,04,6.70
2016,11,18,18,05,6.70
2016,11,18,18,06,6.70
2016,11,18,18,07,6.70
2016,11,18,18,08,6.70
2016,11,18,18,09,6.70
2016,11,18,18,10,6.70
2016,11,18,18,11,6.70
2016,11,18,18,12,6.70
2016,11,18,18,13,6.70
2016,11,18,18,14,6.70
2016,11,18,18,15,6.70
2016,11,18,18,16,6.70
2016,11,18,18,17,6.70
2016,11,18,18,18,6.70
2016,11,18,18,19,6.70
2016,11,18,18,20,6.70
2016,11,18,18,21,6.70
2016,11,18,18,22,6.70
2016,11,18,18,23,6.70
2016,11,18,18,24,6.70
2016,11,18,18,25,6.70
2016,11,18,18,26,6.70
2016,11,18,18,27,6.70
2016,11,18,18,28,6.70
2016,11,18,18,29,6.70
2016,11,18,18,30,6.60
2016,11,18,18,31,6.60
2016,11,18,18,32,6.60
2016,11,18,18,33,6.60
2016,11,18,18,34,6.60
2016,11,18,18,35,6.60
2016,11,18,18,36,6.60
2016,11,18,18,37,6.60
2016,11,18,18,38,6.60
2016,11,18,18,39,6.60
2016,11,18,18,40,6.60
2016,11,18,18,41,6.60
2016,11,18,18,42,6.60
2016,11,18,18,43,6.60
2016,11,18,18,44,6.60
2016,11,18,18,45,6.60
2016,11,18,18,46,6.60
2016,11,18,18,47,6.60
2016,11,18,18,48,6.60
2016,11,18,18,49,6.60
2016,11,18,18,50,6.60
2016,11,18,18,51,6.60
2016,11,18,18,52,6.60
2016,11,18,18,53,6.60
2016,11,18,18,54,6.50
2016,11,18,18,55,6.50
2016,11,18,18,56,6.50
2016,11,18,18,57,6.50
2016,11,18,18,58,6.50
2016,11,18,18,59,6.50
2016,11,18,19,00,6.50
2016,11,18,19,01,6.50
2016,11,18,19,02,6.50
2016,11,18,19,03,6.50
2016,11,18,19,04,6.50
2016,11,18,19,05,6.50
2016,11,18,19,06,6.50
2016,11,18,19,07,6.50
2016,11,18,19,08,6.40
2016,11,18,19,09,6.40
2016,11,18,19,10,6.40
2016,11,18,19,11,6.40
2016,11,18,19,12,6.40
2016,11,18,19,13,6.40
2016,11,18,19,14,6.40
2016,11,18,19,15,6.40
2016,11,18,19,16,6.40
2016,11,18,19,17,6.40
2016,11,18,19,18,6.40
2016,11,18,19,19,6.40
2016,11,18,19,20,6.40
2016,11,18,19,21,6.40
2016,11,18,19,22,6.30
2016,11,18,19,23,6.30
2016,11,18,19,24,6.30
2016,11,18,19,25,6.30
2016,11,18,19,26,6.30
2016,11,18,19,27,6.30
2016,11,18,19,28,6.30
2016,11,18,19,29,6.30
2016,11,18,19,30,6.30
2016,11,18,19,31,6.30
2016,11,18,19,32,6.30
2016,11,18,19,33,6.30
2016,11,18,19,34,6.30
2016,11,18,19,35,6.30
2016,11,18,19,36,6.30
2016,11,18,19,37,6.30
2016,11,18,19,38,6.30
2016,11,18,19,39,6.30
2016,11,18,19,40,6.30
2016,11,18,19,41,6.30
2016,11,18,19,42,6.30
2016,11,18,19,43,6.30
2016,11,18,19,44,6.20
2016,11,18,19,45,6.20
2016,11,18,19,46,6.20
2016,11,18,19,47,6.20
2016,11,18,19,48,6.20
2016,11,18,19,49,6.20
2016,11,18,19,50,6.20
2016,11,18,19,51,6.20
2016,11,18,19,52,6.20
2016,11,18,19,53,6.20
2016,11,18,19,54,6.20
2016,11,18,19,55,6.20
2016,11,18,19,56,6.20
2016,11,18,19,57,6.20
2016,11,18,19,58,6.20
2016,11,18,19,59,6.20
2016,11,18,20,00,6.20
2016,11,18,20,01,6.20
2016,11,18,20,02,6.20
2016,11,18,20,03,6.20
2016,11,18,20,04,6.20
2016,11,18,20,05,6.20
2016,11,18,20,06,6.20
2016,11,18,20,07,6.20
2016,11,18,20,08,6.20
2016,11,18,20,09,6.20
2016,11,18,20,10,6.20
2016,11,18,20,11,6.20
2016,11,18,20,12,6.20
2016,11,18,20,13,6.10
2016,11,18,20,14,6.10
2016,11,18,20,15,6.10
2016,11,18,20,16,6.10
2016,11,18,20,17,6.10
2016,11,18,20,18,6.10
2016,11,18,20,19,6.10
2016,11,18,20,20,6.10
2016,11,18,20,21,6.10
2016,11,18,20,22,6.10
2016,11,18,20,23,6.10
2016,11,18,20,24,6.10
2016,11,18,20,25,6.10
2016,11,18,20,26,6.10
2016,11,18,20,27,6.10
2016,11,18,20,28,6.10
2016,11,18,20,29,6.10
2016,11,18,20,30,6.10
2016,11,18,20,31,6.00
2016,11,18,20,32,6.00
2016,11,18,20,33,6.00
2016,11,18,20,34,6.00
2016,11,18,20,35,6.00
2016,11,18,20,36,6.00
2016,11,18,20,37,6.00
2016,11,18,20,38,6.00
2016,11,18,20,39,6.00
2016,11,18,20,40,6.00
2016,11,18,20,41,6.00
2016,11,18,20,42,6.00
2016,11,18,20,43,6.00
2016,11,18,20,44,6.00
2016,11,18,20,45,5.90
2016,11,18,20,46,5.90
2016,11,18,20,47,5.90
2016,11,18,20,48,5.90
2016,11,18,20,49,5.90
2016,11,18,20,50,5.90
2016,11,18,20,51,5.90
2016,11,18,20,52,5.90
2016,11,18,20,53,5.90
2016,11,18,20,54,5.90
2016,11,18,20,55,5.90
2016,11,18,20,56,5.90
2016,11,18,20,57,5.90
2016,11,18,20,58,5.90
2016,11,18,20,59,5.90
2016,11,18,21,00,5.90
2016,11,18,21,01,5.90
2016,11,18,21,02,5.90
2016,11,18,21,03,5.90
2016,11,18,21,04,5.90
2016,11,18,21,05,5.90
2016,11,18,21,06,5.90
2016,11,18,21,07,5.90
2016,11,18,21,08,5.90
2016,11,18,21,09,5.90
2016,11,18,21,10,5.90
2016,11,18,21,11,5.90
2016,11,18,21,12,5.90
2016,11,18,21,13,5.90
2016,11,18,21,14,5.80
2016,11,18,21,15,5.80
2016,11,18,21,16,5.80
2016,11,18,21,17,5.80
2016,11,18,21,18,5.80
2016,11,18,21,19,5.80
2016,11,18,21,20,5.80
2016,11,18,21,21,5.80
2016,11,18,21,22,5.80
2016,11,18,21,23,5.80
2016,11,18,21,24,5.80
2016,11,18,21,25,5.80
2016,11,18,21,26,5.80
2016,11,18,21,27,5.80
2016,11,18,21,28,5.80
2016,11,18,21,29,5.80
2016,11,18,21,30,5.80
2016,11,18,21,31,5.80
2016,11,18,21,32,5.80
2016,11,18,21,33,5.80
2016,11,18,21,34,5.80
2016,11,18,21,35,5.80
2016,11,18,21,36,5.80
2016,11,18,21,37,5.80
2016,11,18,21,38,5.80
2016,11,18,21,39,5.70
2016,11,18,21,40,5.70
2016,11,18,21,41,5.80
2016,11,18,21,42,5.70
2016,11,18,21,43,5.70
2016,11,18,21,44,5.70
2016,11,18,21,45,5.70
2016,11,18,21,46,5.70
2016,11,18,21,47,5.70
2016,11,18,21,48,5.70
2016,11,18,21,49,5.70
2016,11,18,21,50,5.70
2016,11,18,21,51,5.70
2016,11,18,21,52,5.70
2016,11,18,21,53,5.70
2016,11,18,21,54,5.70
2016,11,18,21,55,5.70
2016,11,18,21,56,5.70
2016,11,18,21,57,5.70
2016,11,18,21,58,5.70
2016,11,18,21,59,5.70
2016,11,18,22,00,5.70
2016,11,18,22,01,5.70
2016,11,18,22,02,5.70
2016,11,18,22,03,5.70
2016,11,18,22,04,5.70
2016,11,18,22,05,5.70
2016,11,18,22,06,5.70
2016,11,18,22,07,5.70
2016,11,18,22,08,5.70
2016,11,18,22,09,5.70
2016,11,18,22,10,5.70
2016,11,18,22,11,5.70
2016,11,18,22,12,5.70
2016,11,18,22,13,5.70
2016,11,18,22,14,5.70
2016,11,18,22,15,5.70
2016,11,18,22,16,5.70
2016,11,18,22,17,5.70
2016,11,18,22,18,5.70
2016,11,18,22,19,5.70
2016,11,18,22,20,5.70
2016,11,18,22,21,5.70
2016,11,18,22,22,5.70
2016,11,18,22,23,5.70
2016,11,18,22,24,5.70
2016,11,18,22,25,5.70
2016,11,18,22,26,5.70
2016,11,18,22,27,5.70
2016,11,18,22,28,5.70
2016,11,18,22,29,5.70
2016,11,18,22,30,5.70
2016,11,18,22,31,5.70
2016,11,18,22,32,5.70
2016,11,18,22,33,5.70
2016,11,18,22,34,5.70
2016,11,18,22,35,5.70
2016,11,18,22,36,5.70
2016,11,18,22,37,5.70
2016,11,18,22,38,5.70
2016,11,18,22,39,5.70
2016,11,18,22,40,5.70
2016,11,18,22,41,5.70
2016,11,18,22,42,5.70
2016,11,18,22,43,5.70
2016,11,18,22,44,5.70
2016,11,18,22,45,5.70
2016,11,18,22,46,5.70
2016,11,18,22,47,5.70
2016,11,18,22,48,5.70
2016,11,18,22,49,5.70
2016,11,18,22,50,5.70
2016,11,18,22,51,5.70
2016,11,18,22,52,5.70
2016,11,18,22,53,5.70
2016,11,18,22,54,5.70
2016,11,18,22,55,5.70
2016,11,18,22,56,5.70
2016,11,18,22,57,5.70
2016,11,18,22,58,5.70
2016,11,18,22,59,5.70
2016,11,18,23,00,5.70
2016,11,18,23,01,5.70
2016,11,18,23,02,5.70
2016,11,18,23,03,5.70
2016,11,18,23,04,5.70
2016,11,18,23,05,5.70
2016,11,18,23,06,5.70
2016,11,18,23,07,5.70
2016,11,18,23,08,5.70
2016,11,18,23,09,5.70
2016,11,18,23,10,5.70
2016,11,18,23,11,5.70
2016,11,18,23,12,5.70
2016,11,18,23,13,5.70
2016,11,18,23,14,5.70
2016,11,18,23,15,5.70
2016,11,18,23,16,5.70
2016,11,18,23,17,5.70
2016,11,18,23,18,5.70
2016,11,18,23,19,5.70
2016,11,18,23,20,5.70
2016,11,18,23,21,5.70
2016,11,18,23,22,5.70
2016,11,18,23,23,5.70
2016,11,18,23,24,5.70
2016,11,18,23,25,5.70
2016,11,18,23,26,5.70
2016,11,18,23,27,5.70
2016,11,18,23,28,5.70
2016,11,18,23,29,5.70
2016,11,18,23,30,5.70
2016,11,18,23,31,5.70
2016,11,18,23,32,5.70
2016,11,18,23,33,5.70
2016,11,18,23,34,5.70
2016,11,18,23,35,5.70
2016,11,18,23,36,5.70
2016,11,18,23,37,5.60
2016,11,18,23,38,5.60
2016,11,18,23,39,5.60
2016,11,18,23,40,5.60
2016,11,18,23,41,5.60
2016,11,18,23,42,5.60
2016,11,18,23,43,5.60
2016,11,18,23,44,5.60
2016,11,18,23,45,5.60
2016,11,18,23,46,5.60
2016,11,18,23,47,5.60
2016,11,18,23,48,5.60
2016,11,18,23,49,5.60
2016,11,18,23,50,5.60
2016,11,18,23,51,5.60
2016,11,18,23,52,5.60
2016,11,18,23,53,5.60
2016,11,18,23,54,5.60
2016,11,18,23,55,5.70
2016,11,18,23,56,5.70
2016,11,18,23,57,5.70
2016,11,18,23,58,5.70
2016,11,18,23,59,5.70
